Location: Distr�
(47.2228°N, 0.1107°W)
Time: 00:40:28
(UTC+00:00)

Daily predictions for brighter satellites

Satellite Brightness Start Highest point End
(mag) Time Altitude Azimuth Time Altitude Azimuth Time Altitude Azimuth
Cosmos 1763 Rocket 3.5 00:05:57 42° SSE 00:07:29 61° ESE 00:12:28 10° NNE
Cosmos 2227 Rocket 2.2 00:02:27 10° NNW 00:08:06 65° WSW 00:10:10 39° S
Landsat 4 3.5 00:05:09 10° NNE 00:08:54 89° W 00:09:24 65° SSW
STARLINK-1216 3.8 00:04:57 10° WNW 00:08:47 49° SW 00:08:47 49° SW
NOSS 7 (E) 4.3 00:09:44 69° ESE 00:09:44 69° ESE 00:12:42 10° NE
Cosmos 2084 Rocket 4.1 00:07:34 10° NW 00:11:58 55° NE 00:14:58 20° ESE
SL-14 R/B 4.2 00:11:48 31° WSW 00:12:43 36° WNW 00:16:19 10° N
Cosmos 1356 Rocket 3.7 00:08:54 10° NNW 00:13:05 58° W 00:13:55 48° SW
STARLINK-1237 4.0 00:09:57 10° WNW 00:13:34 44° SW 00:13:34 44° SW
Cosmos 1758 Rocket 4.4 00:15:28 32° SE 00:16:41 39° E 00:20:49 10° NNE
STARLINK-75 4.5 00:18:02 27° E 00:18:02 27° E 00:19:50 10° ENE
SL-16 R/B 4.3 00:12:05 10° ESE 00:17:04 27° ENE 00:22:04 10° N
STARLINK-1202 4.2 00:14:58 10° WNW 00:18:21 40° WSW 00:18:21 40° WSW
STARLINK-1283 4.3 00:20:03 37° SE 00:20:03 37° SE 00:23:28 10° ENE
STARLINK-80 4.5 00:21:06 31° ESE 00:21:06 31° ESE 00:23:49 10° ENE
Nadezhda 1 Rocket 4.0 00:16:21 10° NNW 00:22:35 75° W 00:25:28 34° S
CZ-4 R/B 3.8 00:18:40 10° NNE 00:23:24 70° ESE 00:24:50 43° S
STARLINK-1203 4.4 00:19:49 10° WNW 00:23:01 36° WSW 00:23:01 36° WSW
Cosmos 1300 4.0 00:20:28 10° NNW 00:23:44 28° W 00:24:09 27° WSW
STARLINK-22 4.5 00:26:16 26° E 00:26:16 26° E 00:28:03 10° ENE
SL-16 R/B 4.4 00:23:00 10° ESE 00:25:21 13° E 00:27:41 10° ENE
STARLINK 1040 3.9 00:26:21 35° NE 00:26:21 35° NE 00:28:05 10° NE
STARLINK-1297 4.5 00:26:32 29° ESE 00:26:32 29° ESE 00:28:55 10° ENE
Cosmos 2285 Rocket 4.1 00:21:43 10° NNW 00:28:07 79° ENE 00:31:55 26° SSE
CZ-2D R/B 4.1 00:28:36 10° NE 00:32:09 18° E 00:35:02 12° SE
USA 81 4.2 00:30:17 35° SSE 00:32:26 64° E 00:37:40 10° N
Cosmos-2242 3.5 00:28:38 10° N 00:32:48 51° ENE 00:34:23 33° SE
Meteor 2-10 Rocket 3.4 00:28:08 10° N 00:33:18 89° ENE 00:35:16 38° S
USA 215 3.2 00:28:36 10° SE 00:35:10 80° SW 00:41:45 10° NW
STARLINK-42 3.5 00:36:26 45° E 00:36:26 45° E 00:38:49 10° ENE
BREEZE-M R/B 3.4 00:28:36 10° W 00:35:44 75° NNW 00:39:15 10° ENE
Cosmos 1626 Rocket 4.1 00:34:39 37° SW 00:35:56 49° WNW 00:40:13 10° N
Meteor 1-21 Rocket 4.2 00:34:27 36° S 00:36:53 85° E 00:42:43 10° NNE
STARLINK-60 4.2 00:35:58 10° NW 00:39:02 42° NNE 00:42:07 10° E
STARLINK-41 3.5 00:40:10 44° E 00:40:10 44° E 00:42:29 10° ENE
STARLINK-1272 3.7 00:42:02 44° ESE 00:42:02 44° ESE 00:45:02 10° ENE
STARLINK-62 4.5 00:43:45 25° E 00:43:45 25° E 00:45:26 10° ENE
Cosmos 540 Rocket 3.6 00:41:07 38° S 00:42:57 63° ESE 00:48:02 10° NNE
SeaSat 1 4.1 00:39:07 10° N 00:43:20 29° NW 00:47:21 11° WSW
STARLINK-1307 3.5 00:46:48 51° SE 00:46:48 51° SE 00:50:22 10° ENE
Helios 1B rocket 2.5 00:45:05 10° N 00:49:12 71° WNW 00:50:24 44° SW
STARLINK-1290 3.4 00:50:11 54° SSE 00:50:15 54° SE 00:53:54 10° ENE
Cosmos 1980 Rocket 2.2 00:51:50 35° S 00:54:14 69° ESE 00:59:53 10° NNE
ERBS 4.3 00:53:59 10° WNW 00:55:10 18° W 00:55:10 18° W
Uosat 12 SS-18 rocket 4.2 00:52:45 10° NW 00:56:57 54° WSW 00:58:02 42° S
STARLINK-1317 3.4 00:56:33 54° SSW 00:57:12 66° SSE 01:01:05 10° ENE
Meteor 1-29 2.7 00:54:23 10° NNE 00:57:45 83° WNW 00:58:11 65° SSW
Cosmos 1455 2.4 00:55:52 10° NNW 00:59:31 52° W 01:00:05 46° SW
Cosmos 1328 3.7 00:59:35 48° S 01:00:39 84° E 01:04:39 10° N
STARLINK-55 3.0 01:00:33 56° W 01:01:05 74° NNW 01:04:18 10° ENE
STARLINK-1274 3.1 01:00:56 62° S 01:01:14 67° SSE 01:04:46 10° ENE
STARLINK-43 4.0 01:00:05 19° W 01:02:29 52° NNW 01:06:06 10° ENE
Cosmos 1812 Rocket 4.5 00:59:08 10° NNW 01:03:10 34° W 01:04:13 30° WSW
STARLINK-1291 3.2 01:04:15 55° SSW 01:04:56 72° SSE 01:08:39 10° ENE
Cosmos 2369 4.0 01:02:04 27° SW 01:05:07 62° WNW 01:10:46 10° NNE
Cosmos 1937 Rocket 4.1 01:00:35 10° NW 01:05:30 42° WSW 01:07:10 32° SW
Meteor 1-11 4.5 01:03:54 28° SSE 01:06:49 60° E 01:12:18 10° NNE
Cosmos 1703 3.2 01:05:53 47° SSW 01:06:56 75° W 01:10:52 10° N
Lacrosse 4 Rocket 2.6 01:03:45 10° NW 01:07:19 26° WSW 01:07:19 26° WSW
STARLINK-1264 3.2 01:07:26 51° SW 01:08:14 75° SSE 01:11:59 10° ENE
Cosmos 1825 Rocket 3.5 01:08:39 40° SSW 01:10:06 71° W 01:14:29 10° N
ADEOS II 4.3 01:06:58 10° NE 01:10:09 16° E 01:13:18 10° SE
Cosmos 2263 Rocket 2.6 01:04:40 10° NNW 01:10:14 61° ENE 01:15:45 10° SE
STARLINK-1267 3.2 01:10:40 48° SW 01:11:35 79° SSE 01:15:20 10° ENE
Timation 1 Rocket 4.3 01:05:46 10° NNW 01:11:48 87° WSW 01:16:19 18° SSE
STARLINK-29 4.3 01:08:45 10° NW 01:11:50 42° NNE 01:14:53 10° E
STARLINK-28 3.4 01:11:33 35° W 01:12:39 59° NNW 01:15:50 10° ENE
SL-4 R/B 2.4 01:08:31 10° WNW 01:13:23 81° NNE 01:18:07 10° ESE
Cosmos 2297 Rocket 3.8 01:10:03 10° WNW 01:13:41 18° W 01:14:46 17° WSW
STARLINK-64 3.9 01:14:12 37° SE 01:14:15 37° SE 01:17:35 10° ENE
UNK 4.4 01:11:40 17° SE 01:15:01 50° ENE 01:19:28 10° N
USA 229 DEB 4.1 01:08:19 10° NW 01:15:34 73° NE 01:23:10 10° SE
USA 229 4.1 01:08:25 10° NW 01:15:40 73° NE 01:23:16 10° SE
NOSS 3-1 (C) 4.2 01:09:00 10° NW 01:16:26 80° NE 01:25:03 10° SE
NOSS 2-1 (D) 4.3 01:16:50 25° SE 01:17:16 25° ESE 01:20:13 10° ENE
Cosmos 372 Rocket 3.9 01:13:01 10° NNW 01:18:09 69° WSW 01:20:47 29° S
STARLINK-1207 3.2 01:17:09 41° WSW 01:18:22 87° SSE 01:22:08 10° ENE
Cosmos 2184 Rocket 4.3 01:16:26 23° SSE 01:20:20 61° E 01:26:25 10° NNE
CZ-4C R/B 3.2 01:16:43 14° WSW 01:21:02 43° NW 01:26:59 10° NE
STARLINK-1266 3.2 01:20:25 38° WSW 01:21:46 89° NNW 01:25:32 10° ENE
BREEZE-M DEB (TANK) 3.0 01:23:14 29° E 01:23:14 29° E 01:24:40 10° ENE
STARLINK-33 3.4 01:21:40 32° W 01:22:51 55° NNW 01:25:56 10° ENE
NOSS 3-1 (A) 4.5 01:17:12 10° NW 01:24:32 66° NE 01:33:02 10° SE
STARLINK-1299 4.4 01:24:05 32° SSE 01:24:59 36° SE 01:28:55 10° ENE
STARLINK-1284 3.3 01:23:41 35° WSW 01:25:09 85° NNW 01:28:56 10° ENE
STARLINK-26 3.7 01:24:28 24° W 01:26:18 55° NNW 01:29:42 10° ENE
BREEZE-M DEB (TANK) 2.0 01:24:15 10° W 01:26:57 48° N 01:29:14 10° ENE
Alouette 2 Rocket 4.3 01:22:56 10° NNW 01:27:09 34° W 01:28:04 30° WSW
STARLINK-1258 3.3 01:26:59 32° WSW 01:28:36 81° NNW 01:32:22 10° ENE
Cosmos 1869 4.4 01:26:27 10° N 01:30:06 38° ENE 01:33:01 14° SE
Cosmos 2150 Rocket 3.9 01:25:38 10° NNW 01:30:47 72° WSW 01:33:54 24° S
STARLINK-1273 4.5 01:30:32 30° SSE 01:31:25 34° SE 01:35:12 10° ENE
STARLINK-1292 3.4 01:30:17 30° WSW 01:32:02 78° NNW 01:35:48 10° ENE
Cosmos 1814 Rocket 4.4 01:29:12 26° SW 01:32:05 58° WNW 01:37:19 10° NNE
Cosmos 2322 Rocket 3.2 01:29:42 19° SSE 01:33:05 36° ESE 01:38:11 10° NE
SJ 16-02 3.7 01:35:44 10° W 01:36:09 10° W 01:36:30 10° W
STARLINK-1288 4.4 01:35:19 31° S 01:36:23 37° SE 01:40:13 10° ENE
STARLINK-1268 3.3 01:36:29 30° W 01:37:45 60° NNW 01:40:49 10° ENE
STARLINK-1289 3.5 01:36:52 25° WSW 01:38:55 71° NNW 01:42:40 10° ENE
Cosmos 2181 Rocket 4.4 01:32:53 10° NNW 01:39:06 52° W 01:42:49 24° SSW
Cosmos 1697 Rocket 3.9 01:36:19 15° WSW 01:40:27 34° NW 01:45:37 10° NNE
STARLINK-1301 3.6 01:38:34 23° WSW 01:40:52 69° NNW 01:44:44 10° ENE
STARLINK-1308 4.2 01:40:08 31° S 01:41:23 40° SE 01:45:17 10° ENE
Resurs 1-4 Rocket 2.2 01:36:14 10° NNE 01:41:33 71° ESE 01:44:54 23° S
STARLINK-66 4.0 01:39:32 18° W 01:41:39 44° NNW 01:44:45 10° NE
Cosmos 2278 4.3 01:38:01 20° WSW 01:41:40 48° NW 01:47:10 10° NNE
Cosmos 841 Rocket 4.3 01:38:49 21° WSW 01:41:54 42° WNW 01:46:51 10° N
DELTA 2 DEB (DPAF) 4.3 01:40:14 30° SSW 01:42:12 54° W 01:46:37 10° NNW
STARLINK-1303 3.6 01:40:12 23° WSW 01:42:23 68° NNW 01:46:09 10° ENE
STARLINK-1316 3.4 01:41:30 26° W 01:43:01 56° NNW 01:46:06 10° ENE
Cosmos 1400 Rocket 3.3 01:39:15 10° NNW 01:43:14 47° W 01:44:45 32° SSW
STARLINK-1257 3.4 01:42:21 25° W 01:43:55 55° NNW 01:47:00 10° ENE
Cosmos 1125 Rocket 3.4 01:39:12 10° NNW 01:44:26 87° WSW 01:48:54 14° SSE
STARLINK-1256 3.5 01:43:18 25° W 01:44:53 54° NNW 01:47:58 10° ENE
STARLINK-58 3.1 01:44:00 32° WSW 01:45:19 71° NNW 01:48:30 10° ENE
STARLINK-1213 3.5 01:44:09 24° W 01:45:46 53° NNW 01:48:50 10° ENE
STARLINK-1312 3.6 01:43:32 21° WSW 01:45:53 65° NNW 01:49:39 10° ENE
STARLINK-1263 3.5 01:45:01 23° W 01:46:40 53° NNW 01:49:44 10° ENE
STARLINK-52 3.5 01:44:03 10° WNW 01:47:14 60° NNE 01:50:25 10° ESE
STARLINK-1259 3.5 01:45:54 23° W 01:47:36 52° NNW 01:50:41 10° NE
STARLINK-1265 3.6 01:46:15 22° W 01:48:00 52° NNW 01:51:05 10° ENE
STARLINK-1285 3.6 01:46:45 22° W 01:48:29 51° NNW 01:51:33 10° NE
STARLINK-1296 3.6 01:48:29 21° W 01:50:17 50° NNW 01:53:21 10° NE
STARLINK-1260 3.6 01:49:21 20° W 01:51:12 50° NNW 01:54:16 10° NE
STARLINK-1304 4.0 01:49:41 30° SSW 01:51:16 47° SE 01:55:16 10° ENE
STARLINK-1318 3.7 01:50:13 20° W 01:52:06 49° NNW 01:55:10 10° NE
STARLINK-75 4.1 01:50:26 15° W 01:52:53 42° NNW 01:56:01 10° NE
STARLINK-1275 3.7 01:51:06 20° W 01:53:01 49° NNW 01:56:05 10° NE
STARLINK-1309 3.7 01:51:58 19° W 01:53:54 48° NNW 01:56:57 10° NE
Cosmos 2154 Rocket 4.2 01:49:51 18° S 01:54:38 72° E 02:00:50 10° NNE
STARLINK-1282 3.7 01:52:49 19° W 01:54:48 47° NNW 01:57:50 10° NE
STARLINK-48 3.4 01:53:48 26° WSW 01:55:54 88° SSE 01:59:48 10° ENE
STARLINK-1313 3.9 01:53:45 16° W 01:55:56 44° NNW 01:58:57 10° NE
STARLINK-1279 3.9 01:54:39 16° W 01:56:52 43° NNW 01:59:53 10° NE
STARLINK-1278 3.8 01:55:21 28° SW 01:57:24 59° SE 02:01:36 10° ENE
Meteor 1-27 4.3 01:51:58 10° NNW 01:57:28 62° W 02:01:18 20° S
STARLINK-1298 3.8 01:55:23 17° W 01:57:28 46° NNW 02:00:31 10° NE
GEOS 3 Rocket 3.7 01:52:33 10° SE 01:57:45 80° NE 02:03:04 10° NW
Cosmos 2227 4.4 01:52:43 10° NW 01:58:19 53° WSW 02:02:39 17° S
STARLINK-1293 3.8 01:56:16 17° W 01:58:24 46° NNW 02:01:27 10° NE
STARLINK-80 4.0 01:55:29 15° W 01:58:28 55° NNW 02:02:13 10° ENE
STARLINK-1283 4.1 01:55:37 14° W 01:59:04 57° NNW 02:03:09 10° ENE
STARLINK-1280 3.8 01:57:07 27° SW 01:59:15 61° SE 02:03:27 10° ENE
SL-16 R/B 2.6 01:55:29 18° S 02:00:13 64° WSW 02:06:23 10° NNW
STARLINK-1255 3.8 01:58:01 16° W 02:00:13 45° NNW 02:03:15 10° NE
Iridium 2 3.6 01:57:11 10° N 02:00:58 83° W 02:03:12 23° S
STARLINK-22 4.0 01:58:39 15° W 02:01:07 44° NNW 02:04:13 10° NE
Cosmos 1241 Rocket 4.4 01:57:57 22° SSW 02:02:07 85° SE 02:08:24 10° NE
STARLINK-1311 4.0 02:00:03 14° W 02:02:16 38° NNW 02:05:05 10° NE
Meteor 2-2 Rocket 4.4 01:56:52 10° N 02:02:56 89° ENE 02:08:42 11° S
STARLINK-1297 3.9 02:00:20 15° W 02:03:09 53° NNW 02:06:42 10° ENE
Cosmos 1844 Rocket 4.1 01:59:22 10° NNW 02:04:38 40° NE 02:09:51 10° ESE
NOSS 2-1 (E) 2.9 02:04:58 29° SSW 02:06:32 74° SE 02:10:12 10° NE
STARLINK-1286 3.7 02:05:37 25° SW 02:07:53 63° SE 02:12:01 10° ENE
CRYOSAT 2 4.3 02:03:00 10° N 02:07:56 87° W 02:11:30 19° S
SL-16 R/B 2.2 02:04:36 21° SSW 02:08:29 80° ESE 02:14:12 10° NNE
MOZ.5/SAFIR/RUBIN 5/SL-8 4.5 02:07:55 23° SSW 02:10:11 36° W 02:14:29 10° NNW
STARLINK-1281 3.7 02:08:48 24° SW 02:11:07 64° SE 02:15:13 10° ENE
STARLINK-42 4.4 02:08:45 10° W 02:11:39 34° NNW 02:14:33 10° NE
CZ-2D R/B 2.2 02:07:31 10° N 02:12:42 67° WNW 02:16:21 20° SSW
Cosmos 2221 2.6 02:08:53 10° NNW 02:13:12 63° W 02:16:17 19° S
STARLINK-1029 3.4 02:11:18 18° W 02:13:26 56° NNW 02:16:35 10° ENE
STARLINK-34 3.8 02:11:58 15° W 02:14:19 45° NNW 02:17:19 10° NE
STARLINK-60 3.3 02:12:07 10° WNW 02:15:08 39° SW 02:18:08 10° SSE
STARLINK-41 4.4 02:12:22 10° W 02:15:11 33° NNW 02:18:00 10° NE
STARLINK-1310 3.6 02:13:35 23° SW 02:16:05 69° SSE 02:20:13 10° ENE
CZ-4C R/B 4.4 02:14:17 22° SSW 02:16:28 35° W 02:20:33 10° NNW
FALCON 9 DEB 3.5 02:13:06 10° WNW 02:16:33 67° NNE 02:20:00 10° ESE
GP-B 4.2 02:14:06 10° NNW 02:18:01 31° W 02:20:26 19° SW
STARLINK-62 3.9 02:15:41 13° W 02:18:10 43° NNW 02:21:06 10° NE
Nadezhda 3 Rocket 4.0 02:12:15 10° NNW 02:18:34 73° W 02:24:39 11° S
USA 215 4.2 02:15:22 16° SSW 02:18:50 25° SW 02:24:02 10° WNW
Cosmos 1315 Rocket 3.0 02:15:05 10° NNW 02:18:55 51° W 02:21:25 20° SSW
STARLINK-1272 4.2 02:15:33 10° W 02:18:56 43° NNW 02:22:21 10° ENE
BREEZE-M DEB (TANK)4.402:22:48SE02:22:48SE02:16:35W
Cosmos 1842 Rocket 4.1 02:16:10 10° NNW 02:20:25 44° W 02:23:13 19° SSW
STARLINK-1319 3.6 02:18:21 21° SW 02:21:03 74° SSE 02:25:11 10° ENE
IRIDIUM 114 4.4 02:16:46 14° S 02:21:18 84° E 02:26:33 10° N
CBERS-1 4.1 02:17:11 10° NNE 02:22:20 79° ESE 02:26:39 15° S
STARLINK-1307 4.4 02:21:17 10° W 02:24:51 44° NNW 02:28:27 10° ENE
STARLINK-1277 3.6 02:23:08 19° SW 02:26:01 79° SSE 02:30:11 10° ENE
Shenzhou-11 Module 2.4 02:26:47 28° S 02:26:52 28° S 02:29:02 10° ESE
STARLINK-1290 4.4 02:24:49 10° W 02:28:24 43° NNW 02:31:59 10° ENE
STARLINK-59 4.5 02:27:25 18° S 02:29:18 29° SE 02:32:27 10° ENE
Cosmos 2058 2.9 02:27:00 18° SSW 02:30:07 75° W 02:34:21 10° N
IRIDIUM 103 4.3 02:25:55 14° S 02:30:28 81° W 02:35:44 10° N
Cosmos 2360 Rocket 2.7 02:25:44 13° S 02:30:36 55° ESE 02:36:07 10° NE
STARLINK-1276 3.6 02:27:56 17° WSW 02:31:01 84° SSE 02:35:11 10° ENE
STARLINK-56 4.5 02:29:04 18° S 02:31:04 29° SE 02:34:16 10° ENE
STARLINK-73 4.5 02:30:38 17° S 02:32:41 30° SE 02:35:55 10° ENE
STARLINK-38 4.4 02:32:12 17° SSW 02:34:18 31° SE 02:37:33 10° ENE
STARLINK-1368 4.4 02:30:48 10° WNW 02:34:44 52° NNE 02:38:41 10° E
STARLINK-65 4.4 02:33:46 17° SSW 02:35:56 32° SE 02:39:13 10° ENE
STARLINK-1305 3.6 02:32:42 16° WSW 02:35:58 89° SSE 02:40:08 10° ENE
STARLINK-68 4.3 02:34:23 18° SSW 02:36:37 35° SE 02:39:58 10° ENE
STARLINK-1306 3.6 02:33:14 15° WSW 02:36:39 87° NNW 02:40:53 10° ENE
STARLINK-53 4.2 02:35:24 17° SSW 02:37:38 34° SE 02:40:58 10° ENE
Cosmos 1980 Rocket 3.8 02:34:12 10° W 02:38:47 25° NW 02:43:24 10° N
STARLINK-1369 4.4 02:35:14 10° WNW 02:39:12 55° NNE 02:43:10 10° E
STARLINK-50 4.4 02:37:26 16° SSW 02:39:55 34° SE 02:43:23 10° ENE
CZ-4B R/B 3.9 02:35:01 10° N 02:40:08 54° WNW 02:44:30 14° SW
STARLINK-1262 3.6 02:37:30 14° WSW 02:40:59 86° NNW 02:45:09 10° ENE
STARLINK-1372 4.3 02:39:24 10° WNW 02:43:21 57° NNE 02:47:16 10° E
Cosmos 2333 Rocket 3.9 02:39:38 10° SSE 02:44:21 28° ESE 02:49:05 10° NE
STARLINK-71 4.3 02:41:45 16° SSW 02:44:38 40° SE 02:48:25 10° ENE
STARLINK-1300 3.7 02:42:17 13° WSW 02:45:57 81° NNW 02:50:07 10° ENE
Meteor 1-28 Rocket 3.6 02:42:50 10° SSE 02:46:33 64° ENE 02:50:16 10° N
STARLINK-29 3.3 02:44:56 10° WNW 02:47:58 41° SW 02:50:59 10° SE
STARLINK-1378 4.2 02:44:07 10° WNW 02:48:07 60° NNE 02:52:06 10° ESE
Cosmos 2219 Rocket 3.8 02:43:48 10° SSE 02:48:27 28° ESE 02:53:08 10° NE
ADEOS II 2.1 02:45:10 10° NNE 02:50:27 77° WNW 02:55:36 10° SSW
STARLINK-1295 3.7 02:47:03 12° WSW 02:50:55 77° NNW 02:55:05 10° ENE
STARLINK-64 4.0 02:48:06 10° W 02:51:36 50° NNW 02:55:08 10° ENE
STARLINK-1379 4.1 02:48:37 10° WNW 02:52:38 63° NNE 02:56:38 10° ESE
SL-4 R/B 3.1 02:48:37 10° WNW 02:52:50 31° SW 02:56:53 10° SSE
IRS-1D 3.8 02:48:01 10° N 02:53:12 58° WNW 02:58:00 11° SSW
Cosmos 2263 Rocket 3.4 02:49:26 10° NW 02:53:41 23° WSW 02:57:35 11° SSW
IDEFIX/ARIANE 42P 3.7 02:48:54 10° NNE 02:53:53 41° E 02:58:49 10° SSE
Cosmos 1606 3.7 02:50:50 10° N 02:54:31 47° ENE 02:58:10 10° SSE
STARLINK-1287 3.8 02:51:50 10° WSW 02:55:55 72° NNW 03:00:04 10° ENE
ERS-2 2.4 02:52:31 10° SSE 02:56:10 72° ENE 02:59:51 10° N
STARLINK-25 3.7 02:53:37 14° SSW 02:56:19 45° SE 02:59:38 10° ENE
STARLINK-1329 4.0 02:52:27 10° WNW 02:56:29 65° NNE 03:00:30 10° ESE
STARLINK-1009 4.5 02:54:54 12° SSW 02:58:19 39° SE 03:02:12 10° ENE
BREEZE-M R/B 2.2 02:54:43 10° WNW 02:58:29 77° NNE 03:01:00 10° ESE
ATLAS 5 CENTAUR R/B 4.3 02:58:25 10° ESE 02:58:45 10° ESE 02:59:04 10° ESE
Cosmos 2341 Rocket 4.1 02:52:45 10° SSW 02:59:05 70° W 03:05:25 10° N
ARIANE 5 R/B 2.6 02:54:36 10° NNE 02:59:39 81° ESE 03:04:38 10° SSW
Cosmos 1892 3.6 02:56:52 13° SW 02:59:50 34° WNW 03:03:20 10° N
STARLINK-1362 3.9 02:56:59 10° WNW 03:01:02 69° NNE 03:05:04 10° ESE
STARLINK-1320 2.9 02:59:15 10° WNW 03:02:22 87° NNE 03:05:30 10° ESE
NOSS 2-1 (C) 4.4 02:59:39 10° WSW 03:02:43 30° NW 03:06:06 10° NNE
STARLINK-1322 2.9 02:59:36 10° WNW 03:02:44 87° NNE 03:05:51 10° ESE
STARLINK-1324 2.9 02:59:55 10° WNW 03:03:03 87° NE 03:06:10 10° ESE
STARLINK-1015 4.4 02:59:41 12° SSW 03:03:17 42° SE 03:07:12 10° ENE
STARLINK-1294 2.9 03:00:13 10° WNW 03:03:22 88° NE 03:06:31 10° ESE
STARLINK-1261 2.8 03:00:36 10° WNW 03:03:44 88° NNE 03:06:51 10° ESE
STARLINK-1325 2.8 03:00:57 10° WNW 03:04:05 89° NE 03:07:13 10° ESE
CZ-2C R/B 4.1 03:00:38 10° NNE 03:04:10 37° E 03:07:45 10° SSE
STARLINK-1333 2.8 03:01:19 10° WNW 03:04:27 89° ENE 03:07:34 10° ESE
CZ-2D R/B 3.9 03:00:25 10° NNE 03:04:40 64° ESE 03:08:59 10° S
STARLINK-1334 2.8 03:01:36 10° WNW 03:04:44 90° NNW 03:07:51 10° ESE
STARLINK-1299 4.1 03:00:39 10° WSW 03:04:52 61° NNW 03:09:06 10° ENE
STARLINK-1326 2.8 03:01:55 10° WNW 03:05:04 90° SSE 03:08:11 10° ESE
STARLINK-1323 2.8 03:02:19 10° WNW 03:05:27 89° SSW 03:08:34 10° ESE
STARLINK-1373 3.8 03:01:28 10° WNW 03:05:29 72° NNE 03:09:31 10° ESE
STARLINK-1349 2.8 03:02:37 10° WNW 03:05:44 89° SSW 03:08:52 10° ESE
STARLINK-1302 3.9 03:01:46 10° WSW 03:05:53 65° NNW 03:10:01 10° ENE
STARLINK-1336 2.8 03:02:56 10° WNW 03:06:04 88° SSW 03:09:11 10° ESE
STARLINK-1331 2.8 03:03:18 10° WNW 03:06:27 88° SSW 03:09:34 10° ESE
IRS-1C 4.2 03:01:17 10° N 03:06:36 69° WNW 03:11:53 10° SSW
STARLINK-1344 2.8 03:03:37 10° WNW 03:06:44 87° SW 03:09:52 10° ESE
STARLINK-1343 2.8 03:04:00 10° WNW 03:07:07 87° SSW 03:10:15 10° ESE
STARLINK-1346 2.8 03:04:16 10° WNW 03:07:26 87° SSW 03:10:35 10° ESE
STARLINK-24 3.8 03:03:58 12° SW 03:07:39 59° SE 03:11:37 10° ENE
STARLINK-1328 2.8 03:04:43 10° WNW 03:07:51 86° SSW 03:10:58 10° ESE
STARLINK-1354 2.8 03:05:01 10° WNW 03:08:08 85° SW 03:11:15 10° ESE
STARLINK-1016 4.2 03:04:27 11° SW 03:08:14 45° SE 03:12:12 10° ENE
STARLINK-1347 2.8 03:05:17 10° WNW 03:08:26 85° SSW 03:11:33 10° ESE
Cosmos 1844 3.8 03:02:42 10° NNW 03:08:34 90° SW 03:14:21 10° SSE
STARLINK-1357 2.8 03:05:43 10° WNW 03:08:52 84° SSW 03:11:58 10° ESE
STARLINK-1335 2.8 03:06:00 10° WNW 03:09:09 84° SSW 03:12:15 10° ESE
STARLINK-1327 2.8 03:06:22 10° WNW 03:09:29 84° SSW 03:12:36 10° ESE
STARLINK-1340 2.8 03:06:39 10° WNW 03:09:47 83° SSW 03:12:54 10° ESE
STARLINK-1356 2.8 03:07:02 10° WNW 03:10:10 83° SSW 03:13:16 10° ESE
STARLINK-1390 3.8 03:06:07 10° WNW 03:10:11 77° NNE 03:14:15 10° ESE
STARLINK-1345 2.8 03:07:21 10° WNW 03:10:28 82° SSW 03:13:36 10° ESE
STARLINK-1355 2.8 03:07:42 10° WNW 03:10:50 82° SW 03:13:57 10° ESE
STARLINK-1273 4.0 03:06:45 10° WSW 03:10:51 62° NNW 03:14:59 10° ENE
STARLINK-1321 2.8 03:08:04 10° WNW 03:11:11 81° SSW 03:14:18 10° ESE
STARLINK-1358 2.8 03:08:26 10° WNW 03:11:34 81° SSW 03:14:41 10° ESE
STARLINK-1332 2.8 03:08:43 10° WNW 03:11:52 80° SSW 03:14:58 10° ESE
STARLINK-1348 2.8 03:09:04 10° WNW 03:12:12 80° SSW 03:15:18 10° SE
STARLINK-1330 2.8 03:09:23 10° WNW 03:12:31 79° SSW 03:15:38 10° SE
STARLINK-1363 2.8 03:09:43 10° WNW 03:12:51 79° SSW 03:15:58 10° SE
STARLINK-1008 4.1 03:09:15 10° SW 03:13:12 49° SE 03:17:13 10° ENE
STARLINK-1337 2.8 03:10:06 10° WNW 03:13:14 78° SSW 03:16:20 10° SE
STARLINK-1342 2.8 03:10:25 10° WNW 03:13:33 78° SSW 03:16:39 10° SE
STARLINK-1364 2.8 03:10:45 10° WNW 03:13:52 77° SSW 03:16:59 10° SE
STARLINK-1376 2.8 03:11:05 10° WNW 03:14:13 77° SSW 03:17:20 10° SE
STARLINK-1360 2.8 03:11:26 10° WNW 03:14:34 76° SSW 03:17:41 10° SE
STARLINK-1361 2.8 03:11:47 10° WNW 03:14:54 76° SSW 03:18:01 10° SE
STARLINK-61 3.7 03:11:09 10° WSW 03:15:03 68° NNW 03:18:58 10° ENE
STARLINK-1367 2.8 03:12:03 10° WNW 03:15:12 75° SSW 03:18:20 10° SE
STARLINK-1366 2.8 03:12:26 10° WNW 03:15:33 75° SSW 03:18:40 10° SE
STARLINK-1288 4.1 03:11:45 10° WSW 03:15:51 59° NNW 03:19:57 10° ENE
STARLINK-1365 3.7 03:12:08 10° WNW 03:16:13 83° NNE 03:20:17 10° ESE
STARLINK-81 3.5 03:12:45 10° SW 03:16:19 62° SSE 03:19:55 10° ENE
Cosmos 1151 Rocket 3.2 03:12:35 10° N 03:17:01 82° E 03:21:24 10° S
Cosmos 2322 Rocket 3.0 03:11:47 10° SW 03:17:04 41° NW 03:22:22 10° NNE
CZ-4B R/B 4.1 03:15:36 10° ESE 03:18:02 22° ENE 03:20:33 10° NNE
STARLINK-54 3.3 03:14:29 10° SW 03:18:03 70° SSE 03:21:39 10° ENE
Cosmos 1461 3.9 03:13:31 10° NNW 03:18:08 59° NE 03:22:49 10° SE
STARLINK-1014 4.0 03:14:10 10° SW 03:18:09 53° SE 03:22:11 10° ENE
Meteor 2-3 Rocket 4.5 03:13:16 10° S 03:18:40 53° E 03:24:05 10° NNE
SL-8 Rocket 4.1 03:12:32 10° SSW 03:18:47 66° WNW 03:25:02 10° N
STARLINK-77 3.4 03:15:58 10° SW 03:19:34 66° SSE 03:23:10 10° ENE
Resurs 1-4 Rocket 3.8 03:17:05 10° NNW 03:20:51 20° WNW 03:24:36 10° WSW
STARLINK-1308 4.2 03:16:49 10° W 03:20:54 55° NNW 03:24:59 10° ENE
Cosmos 2151 3.3 03:17:43 10° SSW 03:21:54 53° WNW 03:26:09 10° N
Lacrosse 5 rocket 3.2 03:19:20 10° S 03:22:22 21° SE 03:25:17 10° E
STARLINK-1025 3.9 03:19:05 10° SW 03:23:09 57° SE 03:27:13 10° ENE
STARLINK-52 4.1 03:20:30 10° W 03:23:10 24° SW 03:25:48 10° SSE
Cosmos 2218 Rocket 4.1 03:16:51 10° SSW 03:23:13 73° W 03:29:39 10° N
H-2A R/B 2.1 03:19:02 10° S 03:23:27 73° WSW 03:27:59 10° NNW
STARLINK-79 3.3 03:20:51 10° SW 03:24:27 72° SE 03:28:04 10° ENE
Cosmos 1766 Rocket 3.5 03:20:17 10° SSW 03:24:36 74° W 03:28:57 10° N
COBE Rocket 4.3 03:19:47 10° S 03:24:41 47° W 03:29:41 10° NNW
STARLINK-1338 3.5 03:22:04 10° WNW 03:26:03 87° SW 03:30:03 10° ESE
STARLINK-78 3.3 03:22:28 10° SW 03:26:05 75° SSE 03:29:43 10° ENE
Cosmos 1408 3.9 03:24:17 10° SW 03:27:27 27° WNW 03:30:37 10° NNW
Okean 3 Rocket 3.8 03:23:13 10° SSW 03:27:42 60° WNW 03:32:13 10° N
STARLINK-57 3.3 03:24:07 10° SW 03:27:43 80° SSE 03:31:21 10° ENE
STARLINK-1017 3.9 03:23:59 10° SW 03:28:04 62° SE 03:32:11 10° ENE
Cosmos 1515 Rocket 4.1 03:24:34 10° N 03:28:56 64° E 03:33:14 10° SSE
STARLINK-49 3.3 03:25:38 10° SW 03:29:15 78° SSE 03:32:52 10° ENE
STARLINK-1304 4.3 03:26:49 10° W 03:30:52 51° NNW 03:34:56 10° ENE
Spot 4 Rocket 4.1 03:26:14 10° N 03:31:23 74° WNW 03:36:30 10° SSW
